Date String (YYYY-MM-DD hh:mm:ss) UTC,Instrument flags,Ambient pressure (hPa),Sample flow (lpm),Bypass flow (lpm),Sample temperature (°C),Ambient temperature (°C),ASC tube jacket temperature (°C),LED temperature (°C),Box temperature (°C),Sample RH (%),Span deviation,Mass concentration (μg/m³),Mass concentration (μg/m³),Mass concentration (μg/m³)
DateTimeUTC,F1_M11,P_M11,Q1_M11,Q2_M11,T1_M11,T2_M11,T3_M11,T4_M11,T5_M11,U1_M11,ZSPAN_M11,X0_M11,X2_M11,X1_M11
2022-08-26 16:00:00,,0828.5,4.99,0.00,30.1,26.9,00.0,38.3,31.6,29.2,0000.0,0008.82,0004.26,0003.84
2022-08-26 16:01:00,,0828.5,5.01,0.00,30.0,27.0,00.0,38.3,31.6,28.9,0000.0,0008.83,0004.27,0003.85
2022-08-26 16:02:00,,0828.5,5.00,0.00,30.0,27.3,00.0,38.3,31.5,29.3,0000.0,0008.38,0004.28,0003.85
2022-08-26 16:03:00,,0828.5,5.00,0.00,29.9,27.6,00.0,38.3,31.5,29.7,0000.0,0008.42,0004.29,0003.85
2022-08-26 16:04:00,,0828.5,5.01,0.00,29.9,27.9,00.0,38.3,31.5,31.1,0000.0,0008.39,0004.30,0003.87
2022-08-26 16:05:00,,0828.5,4.99,0.00,29.9,28.2,00.0,38.3,31.5,31.2,0000.0,0008.38,0004.29,0003.88
2022-08-26 16:06:00,,0828.5,5.00,0.00,29.9,28.4,00.0,38.4,31.6,30.2,0000.0,0008.39,0004.30,0003.88
2022-08-26 16:07:00,,0828.5,4.99,0.00,29.9,28.5,00.0,38.4,31.6,28.9,0000.0,0008.53,0004.28,0003.87
2022-08-26 16:08:00,,0828.5,5.00,0.00,30.0,28.7,00.0,38.4,31.7,28.9,0000.0,0008.86,0004.29,0003.87
2022-08-26 16:09:00,,0828.5,5.00,0.00,30.0,28.8,00.0,38.4,31.7,27.8,0000.0,0008.85,0004.29,0003.86
2022-08-26 16:10:00,,0828.5,5.00,0.00,30.0,28.9,00.0,38.5,31.7,28.0,0000.0,0008.75,0004.24,0003.86
2022-08-26 16:11:00,,0828.5,4.99,0.00,30.0,29.0,00.0,38.5,31.8,28.3,0000.0,0008.56,0004.26,0003.86
2022-08-26 16:12:00,,0828.4,5.01,0.00,30.1,29.1,00.0,38.5,31.9,27.6,0000.0,0008.71,0004.28,0003.87
2022-08-26 16:13:00,,0828.5,5.01,0.00,30.1,29.1,00.0,38.6,31.9,27.8,0000.0,0008.70,0004.27,0003.87
2022-08-26 16:14:00,,0828.5,5.01,0.00,30.1,29.2,00.0,38.6,31.9,28.4,0000.0,0008.65,0004.27,0003.88
2022-08-26 16:15:00,,0828.5,5.00,0.00,30.2,29.3,00.0,38.6,32.0,28.4,0000.0,0008.76,0004.29,0003.88
2022-08-26 16:16:00,,0828.5,5.00,0.00,30.2,29.3,00.0,38.7,32.0,28.4,0000.0,0008.82,0004.30,0003.88
2022-08-26 16:17:00,,0828.5,5.00,0.00,30.2,29.1,00.0,38.7,32.0,28.5,0000.0,0008.71,0004.33,0003.89
2022-08-26 16:18:00,,0828.5,5.00,0.00,30.2,28.0,00.0,38.7,32.0,28.1,0000.0,0008.55,0004.36,0003.90
2022-08-26 16:19:00,,0828.5,4.99,0.00,30.2,26.9,00.0,38.7,31.9,29.1,0000.0,0008.27,0004.36,0003.92
2022-08-26 16:20:00,,0828.5,5.01,0.00,30.1,26.9,00.0,38.6,31.8,30.5,0000.0,0008.35,0004.39,0003.94
2022-08-26 16:21:00,,0828.5,5.00,0.00,30.1,27.2,00.0,38.6,31.7,31.9,0000.0,0008.62,0004.44,0003.96
2022-08-26 16:22:00,,0828.5,5.00,0.00,30.0,27.5,00.0,38.6,31.6,31.5,0000.0,0009.01,0004.47,0003.97
2022-08-26 16:23:00,,0828.5,4.99,0.00,30.0,27.8,00.0,38.6,31.6,32.1,0000.0,0008.43,0004.46,0003.99
2022-08-26 16:24:00,,0828.5,5.00,0.00,30.0,28.1,00.0,38.6,31.7,31.8,0000.0,0008.30,0004.51,0004.01
2022-08-26 16:25:00,,0828.5,4.99,0.00,30.0,28.3,00.0,38.6,31.7,32.1,0000.0,0008.94,0004.58,0004.04
2022-08-26 16:26:00,,0828.5,5.01,0.00,30.0,28.5,00.0,38.6,31.7,32.5,0000.0,0009.17,0004.63,0004.06
2022-08-26 16:27:00,,0828.5,4.99,0.00,30.0,28.7,00.0,38.6,31.8,32.7,0000.0,0009.68,0004.68,0004.08
2022-08-26 16:28:00,,0828.5,5.01,0.00,30.0,28.8,00.0,38.6,31.8,33.2,0000.0,0010.52,0004.66,0004.09
2022-08-26 16:29:00,,0828.5,5.00,0.00,30.0,28.9,00.0,38.7,31.9,32.7,0000.0,0010.47,0004.64,0004.08
2022-08-26 16:30:00,,0828.5,5.00,0.00,30.1,29.0,00.0,38.7,31.9,32.5,0000.0,0010.58,0004.64,0004.07
2022-08-26 16:31:00,,0828.5,5.01,0.00,30.1,29.1,00.0,38.7,32.0,32.2,0000.0,0010.58,0004.62,0004.06
2022-08-26 16:32:00,,0828.5,5.00,0.00,30.1,29.1,00.0,38.7,32.0,32.3,0000.0,0010.44,0004.61,0004.05
2022-08-26 16:33:00,,0828.5,5.00,0.00,30.1,29.2,00.0,38.7,32.0,32.1,0000.0,0010.17,0004.60,0004.04
2022-08-26 16:34:00,,0828.5,5.00,0.00,30.2,29.2,00.0,38.8,32.0,32.0,0000.0,0010.22,0004.61,0004.03
2022-08-26 16:35:00,,0828.5,4.99,0.00,30.2,29.3,00.0,38.8,32.1,32.3,0000.0,0010.40,0004.62,0004.01
2022-08-26 16:36:00,,0828.5,5.01,0.00,30.2,29.4,00.0,38.8,32.1,32.6,0000.0,0010.26,0004.62,0004.00
2022-08-26 16:37:00,,0828.5,5.00,0.00,30.3,29.3,00.0,38.9,32.1,31.5,0000.0,0010.60,0004.57,0003.99
2022-08-26 16:38:00,,0828.5,5.00,0.00,30.3,28.4,00.0,38.9,32.1,31.6,0000.0,0010.22,0004.52,0003.97
2022-08-26 16:39:00,,0828.5,4.99,0.00,30.3,27.2,00.0,38.8,32.0,31.2,0000.0,0009.50,0004.52,0003.97
2022-08-26 16:40:00,,0828.5,5.01,0.00,30.2,26.9,00.0,38.8,31.9,31.0,0000.0,0009.43,0004.51,0003.98
2022-08-26 16:41:00,,0828.5,5.00,0.00,30.1,27.1,00.0,38.7,31.8,31.9,0000.0,0009.32,0004.53,0003.99
2022-08-26 16:42:00,,0828.5,4.99,0.00,30.0,27.4,00.0,38.7,31.7,32.0,0000.0,0009.27,0004.54,0004.00
2022-08-26 16:43:00,,0828.5,4.99,0.00,30.0,27.8,00.0,38.7,31.7,31.9,0000.0,0009.16,0004.54,0004.02
2022-08-26 16:44:00,,0828.5,5.00,0.00,30.0,28.1,00.0,38.7,31.7,32.4,0000.0,0009.11,0004.55,0004.03
2022-08-26 16:45:00,,0828.8,5.00,0.00,30.0,28.3,00.0,38.7,31.7,32.6,0000.0,0009.05,0004.55,0004.03
2022-08-26 16:46:00,,0828.6,4.99,0.00,30.0,28.5,00.0,38.7,31.8,32.2,0000.0,0008.77,0004.51,0004.04
2022-08-26 16:47:00,,0828.6,5.00,0.00,30.0,28.7,00.0,38.7,31.9,32.0,0000.0,0008.30,0004.48,0004.05
2022-08-26 16:48:00,,0828.7,5.01,0.00,30.0,28.8,00.0,38.7,31.9,31.9,0000.0,0007.74,0004.50,0004.06
2022-08-26 16:49:00,,0829.0,5.00,0.00,30.1,28.9,00.0,38.7,31.9,31.8,0000.0,0007.77,0004.55,0004.08
2022-08-26 16:50:00,,0829.0,5.01,0.00,30.1,29.0,00.0,38.8,32.0,31.4,0000.0,0008.17,0004.60,0004.10
2022-08-26 16:51:00,,0828.7,5.00,0.00,30.1,29.1,00.0,38.8,32.0,31.5,0000.0,0009.38,0004.65,0004.13
2022-08-26 16:52:00,,0829.0,4.99,0.00,30.1,29.2,00.0,38.8,32.0,31.8,0000.0,0009.48,0004.66,0004.14
2022-08-26 16:53:00,,0828.9,5.00,0.00,30.2,29.2,00.0,38.8,32.1,31.9,0000.0,0009.96,0004.71,0004.16
2022-08-26 16:54:00,,0829.1,5.01,0.00,30.2,29.3,00.0,38.8,32.1,32.1,0000.0,0010.55,0004.75,0004.17
2022-08-26 16:55:00,,0829.1,4.99,0.00,30.2,29.3,00.0,38.9,32.1,31.4,0000.0,0012.33,0004.79,0004.19
2022-08-26 16:56:00,,0828.8,5.00,0.00,30.3,29.4,00.0,38.9,32.2,31.1,0000.0,0013.81,0004.85,0004.22
2022-08-26 16:57:00,,0828.9,5.00,0.00,30.3,28.7,00.0,38.9,32.2,31.4,0000.0,0014.59,0004.90,0004.24
2022-08-26 16:58:00,,0828.9,5.01,0.00,30.3,27.4,00.0,38.9,32.0,31.0,0000.0,0015.18,0004.93,0004.26
2022-08-26 16:59:00,,0828.6,5.00,0.00,30.2,27.0,00.0,38.8,32.0,31.4,0000.0,0015.87,0005.02,0004.28
